Overview Statistics Trail Chart Weather Telemetry Raw packets
 

This is the latest recevied weather packets stored in our database for station/object AI5BL. If no packets are shown the sender has not sent any weather packets the latest 10 day(s).

<< 1 2 3 4 5 6 7 >>
Time Temp. Humidity Pressure Rain* Wind** Luminosity Snow
1788637485 32.22° C 66% 1015 hPa 0 mm - 188 W/m² -
1788637181 32.78° C 63% 1015.1 hPa 0 mm - 219 W/m² -
1788636880 32.78° C 62% 1015.1 hPa 0 mm - 501 W/m² -
1788636576 32.78° C 64% 1015.3 hPa 0 mm - 561 W/m² -
1788636271 32.22° C 65% 1015.2 hPa 0 mm - 620 W/m² -
1788635966 31.67° C 64% 1015.2 hPa 0 mm - 538 W/m² -
1788635665 31.67° C 64% 1015.3 hPa 0 mm - 549 W/m² -
1788635360 32.22° C 64% 1015.5 hPa 0 mm - 412 W/m² -
1788635058 32.78° C 69% 1015.6 hPa 0 mm - 393 W/m² -
1788634756 32.22° C 68% 1015.6 hPa 0 mm - 259 W/m² -
1788634452 32.22° C 66% 1015.7 hPa 0 mm - 689 W/m² -
1788634151 31.67° C 68% 1015.8 hPa 0 mm - 758 W/m² -
1788633851 32.22° C 69% 1015.8 hPa 0 mm - 367 W/m² -
1788633549 31.67° C 69% 1016.1 hPa 0 mm - 616 W/m² -
1788633250 31.67° C 69% 1016.2 hPa 0 mm - 537 W/m² -
1788632940 31.67° C 68% 1016.2 hPa 0 mm - 480 W/m² -
1788632638 31.67° C 68% 1016.3 hPa 0 mm - 443 W/m² -
1788632335 31.11° C 70% 1016.1 hPa 0 mm - 560 W/m² -
1788632035 31.11° C 69% 1016.5 hPa 0 mm - 320 W/m² -
1788631734 31.67° C 73% 1016.3 hPa 0 mm - 266 W/m² -
1788631448 31.11° C 70% 1016.6 hPa 0 mm - 465 W/m² -
1788631123 31.67° C 71% 1016.6 hPa 0 mm - 364 W/m² -
1788630817 31.67° C 69% 1016.7 hPa 0 mm - 345 W/m² -
1788630513 31.67° C 69% 1016.7 hPa 0 mm - 331 W/m² -
1788630209 31.11° C 70% 1016.6 hPa 0 mm - 522 W/m² -

* Rain latest hour (hover to see other rain measurements)
** Current wind speed in m/s (hover to see current wind gust speed)